www.pogodaiklimat.ru
ПОГОДА в Мубареке

Архив погоды в Мубареке (Кашкадарьинская область, Узбекистан)

Время
и дата
03:50 17.04
04:00 17.04
04:10 17.04
04:20 17.04
04:30 17.04
04:40 17.04
04:50 17.04
05:00 17.04
05:10 17.04
05:20 17.04
05:30 17.04
05:40 17.04
05:50 17.04
06:00 17.04
06:10 17.04
06:20 17.04
06:30 17.04
06:40 17.04
06:50 17.04
07:00 17.04
07:10 17.04
07:20 17.04
08:30 17.04
08:50 17.04
10:40 17.04
16:20 17.04
16:40 17.04
16:50 17.04
17:00 17.04
17:10 17.04
17:20 17.04
17:30 17.04
17:40 17.04
17:50 17.04
18:00 17.04
18:10 17.04
18:20 17.04
18:30 17.04
18:40 17.04
18:50 17.04
19:00 17.04
19:10 17.04
19:20 17.04
19:30 17.04
19:40 17.04
19:50 17.04
20:00 17.04
20:10 17.04
20:20 17.04
20:30 17.04
20:40 17.04
20:50 17.04
21:00 17.04
21:10 17.04
21:20 17.04
21:30 17.04
21:40 17.04
21:50 17.04
22:00 17.04
22:10 17.04
22:20 17.04
22:30 17.04
22:40 17.04
22:50 17.04
23:00 17.04
23:10 17.04
23:20 17.04
23:30 17.04
23:40 17.04
23:50 17.04
00:30 18.04
00:50 18.04
01:00 18.04
01:10 18.04
01:20 18.04
01:30 18.04
01:40 18.04
01:50 18.04
02:00 18.04
02:10 18.04
02:20 18.04
02:30 18.04
02:40 18.04
02:50 18.04
03:00 18.04
03:10 18.04
03:20 18.04
03:30 18.04
03:40 18.04
03:50 18.04
04:00 18.04
04:10 18.04
04:20 18.04
04:40 18.04
04:50 18.04
05:10 18.04
05:40 18.04
05:50 18.04
06:00 18.04
06:10 18.04
06:20 18.04
06:30 18.04
06:40 18.04
06:50 18.04
07:00 18.04
07:10 18.04
07:20 18.04
07:40 18.04
07:50 18.04
08:00 18.04
08:10 18.04
08:20 18.04
10:50 18.04
11:30 18.04
12:20 20.04
12:30 20.04
12:40 20.04
13:00 20.04
13:10 20.04
13:20 20.04
13:30 20.04
13:40 20.04
14:00 20.04
14:20 20.04
14:40 20.04
14:50 20.04
15:00 20.04
15:10 20.04
15:20 20.04
15:30 20.04
15:50 20.04
16:00 20.04
16:10 20.04
16:30 20.04
16:40 20.04
17:00 20.04
17:10 20.04
17:20 20.04
17:30 20.04
17:50 20.04
18:10 20.04
18:30 20.04
18:40 20.04
18:50 20.04
Ветер
(напр.,м/с)
Видимость Явления Солнечная радиация
(Вт/м2)
Т
(С)
Тd
(С)
f
(%)
Тe
(С)
Тes
(С)
Комфортность P
(гПа)
Po
(гПа)
Тmin
(С)
Tmax
(С)
R
(мм)
СВ 1.2
{2.5}
+12.4 +12.4 100 +12 +12 1019.6 985.5 +12.5 +12.4
С 1.6
{3.1}
+12.2 +12.2 100 +11 +11 1019.5 985.4 +12.4 +12.2
С 1.3
{2.6}
+12.1 +12.1 100 +12 +12 1019.3 985.2 +12.2 +12.1
С 1.5
{2.9}
+12.2 +12.2 100 +11 +11 1019.3 985.2 +12.2 +12.1
С 2.0
{3.2}
+12.3 +12.3 100 +11 +11 1019.1 985.0 +12.3 +12.1
С 1.9
{3.6}
+12.5 +12.5 100 +11 +11 1019.0 984.9 +12.5 +12.3
СВ 1.7
{3.7}
+12.6 +12.6 100 +12 +12 1019.0 984.9 +12.6 +12.5
СВ 1.5
{2.9}
+12.2 +12.2 100 +11 +11 1019.1 985.0 +12.6 +12.2
СВ 1.1
{2.6}
+11.9 +11.9 100 +11 +11 1019.2 985.1 +12.2 +11.9
СВ 1.6
{2.5}
+11.7 +11.7 100 +11 +11 1019.2 985.1 +11.9 +11.7
СВ 1.5
{2.9}
+11.4 +11.4 100 +10 +10 1019.0 984.9 +11.7 +11.4
СВ 1.6
{2.6}
+11.3 +11.3 100 +10 +10 1019.0 984.9 +11.4 +11.3
СВ 1.6
{2.9}
+11.1 +11.1 100 +10 +10 1018.9 984.8 +11.3 +11.1
СВ 1.9
{3.1}
+11.0 +11.0 100 +10 +10 1019.0 984.9 +11.1 +11.0
В 1.6
{2.6}
+10.9 +10.9 100 +10 +10 1019.1 985.0 +11.0 +10.9
СВ 1.5
{2.4}
+10.9 +10.9 100 +10 +10 1019.2 985.1 +11.0 +10.9
СВ 1.3
{2.1}
+11.1 +11.1 100 +10 +10 1019.2 985.1 +11.1 +10.9
СВ 1.2
{1.9}
+11.5 +11.5 100 +11 +11 1019.2 985.1 +11.5 +11.1
СВ 1.1
{1.6}
+11.9 +11.9 100 +11 +11 1019.2 985.1 +11.9 +11.5
В 1.4
{2.2}
+12.3 +12.3 100 +12 +12 1019.3 985.2 +12.3 +11.9
В 1.0
{1.9}
+12.9 +12.9 100 +13 +13 1019.3 985.2 +12.9 +12.3
СВ 1.2
{2.7}
+13.3 +13.3 100 +13 +13 1019.3 985.2 +13.3 +12.9
СВ 2.6
{6.0}
+17.0 +15.4 90 +17 +17 1019.2 985.1 +17.0 +16.5
СВ 4.2
{8.3}
+17.9 +14.3 79 +18 +18 1019.1 985.0 +18.0 +17.5
СВ 5.1
{9.7}
+22.2 +10.6 48 +24 +24 комфорт 1018.0 984.0 +22.4 +21.8
СВ 8.1
{13.9}
+24.4 +10.4 41 +25 +25 комфорт 1013.9 980.0 +24.8 +24.3
СВ 8.0
{12.9}
+24.3 +10.3 41 +25 +25 комфорт 1013.9 980.0 +24.5 +24.1
СВ 7.3
{13.1}
+24.3 +10.8 43 +26 +26 жарко 1013.8 979.9 +24.5 +24.2
СВ 7.2
{14.1}
+24.4 +10.5 42 +26 +26 жарко 1013.8 979.9 +24.5 +24.0
СВ 8.5
{15.3}
+24.0 +10.2 42 +25 +25 комфорт 1013.7 979.8 +24.4 +23.9
СВ 7.2
{13.5}
+23.8 +9.9 41 +25 +25 комфорт 1013.7 979.8 +24.2 +23.8
СВ 6.8
{12.3}
+23.9 +11.7 46 +25 +25 комфорт 1013.7 979.8 +24.0 +23.8
СВ 6.7
{11.6}
+23.9 +10.8 44 +25 +25 комфорт 1013.7 979.8 +23.9 +23.6
СВ 5.9
{10.2}
+23.6 +10.6 44 +25 +25 комфорт 1013.8 979.9 +23.9 +23.6
СВ 5.5
{10.4}
+23.5 +10.6 44 +25 +25 комфорт 1013.8 979.9 +23.6 +23.5
СВ 5.2
{9.1}
+23.4 +11.0 46 +26 +26 жарко 1013.8 979.9 +23.5 +23.4
СВ 5.0
{9.2}
+23.3 +11.4 47 +26 +26 жарко 1013.8 979.9 +23.4 +23.2
СВ 4.5
{9.2}
+23.1 +11.9 49 +26 +26 жарко 1013.7 979.8 +23.3 +23.1
СВ 5.5
{10.9}
+23.0 +11.0 47 +25 +25 комфорт 1013.8 979.9 +23.1 +23.0
СВ 7.0
{11.9}
+22.6 +11.1 48 +25 +25 комфорт 1013.8 979.9 +23.0 +22.6
СВ 6.7
{12.6}
+22.2 +11.2 50 +24 +24 комфорт 1013.8 979.9 +22.6 +22.2
СВ 5.8
{9.2}
+21.8 +11.2 51 +24 +24 комфорт 1013.9 980.0 +22.2 +21.8
СВ 5.8
{9.0}
+21.5 +11.1 52 +23 +23 комфорт 1013.9 980.0 +21.8 +21.5
СВ 5.6
{10.4}
+21.4 +10.5 50 +23 +23 комфорт 1014.0 980.1 +21.5 +21.4
СВ 5.7
{9.8}
+21.1 +10.3 50 +23 +23 комфорт 1014.0 980.1 +21.4 +21.1
СВ 5.5
{10.4}
+20.9 +10.0 50 +23 +23 комфорт 1014.1 980.2 +21.2 +20.9
СВ 4.9
{9.0}
+20.7 +9.5 49 +22 +22 комфорт 1014.1 980.2 +20.9 +20.7
СВ 5.1
{9.9}
+20.5 +9.1 48 +22 +22 комфорт 1014.1 980.2 +20.7 +20.5
СВ 5.7
{10.2}
+20.4 +8.5 46 +21 +21 комфорт 1014.0 980.1 +20.5 +20.4
СВ 6.5
{12.7}
+20.3 +9.0 48 +21 +21 комфорт 1013.8 979.9 +20.5 +20.3
СВ 6.8
{11.2}
+20.4 +8.8 47 +21 +21 комфорт 1013.9 980.0 +20.4 +20.3
СВ 5.7
{9.8}
+20.3 +9.0 48 +21 +21 комфорт 1013.9 980.0 +20.4 +20.2
СВ 5.4
{9.2}
+20.2 +9.2 49 +21 +21 комфорт 1014.0 980.1 +20.3 +20.2
СВ 5.6
{11.3}
+20.1 +9.2 50 +21 +21 комфорт 1013.9 980.0 +20.4 +20.1
СВ 5.1
{9.9}
+19.8 +9.3 51 +21 +21 комфорт 1013.9 980.0 +20.1 +19.8
СВ 3.8
{8.9}
+19.3 +9.5 53 +20 +20 1014.0 980.1 +19.8 +19.3
СВ 2.8
{6.4}
+18.9 +9.8 56 +20 +20 1014.0 980.1 +19.3 +18.9
СВ 3.0
{6.1}
+18.7 +10.0 57 +19 +19 1013.9 980.0 +18.9 +18.7
СВ 3.2
{6.3}
+18.6 +10.2 58 +19 +19 1013.8 979.9 +18.7 +18.6
СВ 3.9
{7.1}
+18.6 +10.4 59 +19 +19 1013.7 979.8 +18.7 +18.6
СВ 4.0
{7.8}
+18.7 +10.6 59 +19 +19 1013.7 979.8 +18.8 +18.6
СВ 3.9
{6.8}
+18.6 +10.8 61 +19 +19 1013.7 979.8 +18.7 +18.5
СВ 4.7
{7.8}
+18.5 +11.0 62 +19 +19 1013.7 979.8 +18.7 +18.5
СВ 4.4
{8.6}
+18.3 +11.1 63 +18 +18 1013.5 979.6 +18.5 +18.3
СВ 3.5
{6.2}
+18.0 +10.9 63 +18 +18 1013.4 979.5 +18.3 +17.9
СВ 4.2
{7.3}
+18.2 +11.0 63 +18 +18 1013.3 979.4 +18.3 +17.9
СВ 4.3
{8.3}
+18.2 +11.0 63 +18 +18 1013.1 979.2 +18.2 +18.1
СВ 4.2
{7.3}
+17.9 +11.1 65 +18 +18 1013.0 979.1 +18.2 +17.9
СВ 3.8
{6.9}
+17.9 +11.2 65 +18 +18 1012.9 979.0 +18.0 +17.8
СВ 3.6
{7.9}
+17.9 +11.3 66 +18 +18 1012.7 978.8 +18.1 +17.9
СВ 4.3
{8.2}
+17.3 +12.2 72 +17 +17 1012.4 978.5 +18.0 +17.3
СВ 4.2
{6.8}
+17.1 +12.3 73 +17 +17 1012.2 978.3 +17.3 +17.2
СВ 4.6
{8.0}
+17.2 +12.4 73 +17 +17 1012.1 978.2 +17.2 +17.1
СВ 4.0
{6.6}
+16.9 +12.3 74 +16 +16 1012.0 978.1 +17.2 +16.9
СВ 3.1
{5.9}
+16.6 +12.3 76 +16 +16 1011.9 978.0 +16.9 +16.6
СВ 2.7
{6.1}
+16.5 +12.3 76 +16 +16 1011.7 977.8 +16.6 +16.4
СВ 4.1
{7.2}
+17.1 +12.0 72 +17 +17 1011.5 977.7 +17.2 +16.5
СВ 3.3
{6.8}
+16.9 +11.8 72 +17 +17 1011.4 977.6 +17.2 +16.9
СВ 3.4
{7.4}
+17.1 +11.6 70 +17 +17 1011.3 977.5 +17.2 +16.8
СВ 3.6
{6.8}
+17.4 +11.4 68 +17 +17 1011.2 977.4 +17.4 +17.1
СВ 4.2
{7.8}
+17.4 +11.1 67 +17 +17 1011.1 977.3 +17.5 +17.3
СВ 2.9
{6.2}
+16.8 +11.0 69 +17 +17 1011.0 977.2 +17.4 +16.8
С 2.9
{5.6}
+16.5 +11.0 70 +16 +16 1010.9 977.1 +16.8 +16.5
С 3.4
{5.6}
+16.2 +11.0 71 +16 +16 1010.9 977.1 +16.5 +16.1
СВ 2.4
{5.1}
+16.2 +11.0 71 +16 +16 1010.9 977.1 +16.2 +16.0
С 2.9
{5.2}
+16.0 +11.0 72 +16 +16 1010.8 977.0 +16.2 +16.0
С 2.4
{4.6}
+15.7 +11.1 74 +15 +15 1010.8 977.0 +16.0 +15.7
С 2.5
{4.9}
+15.9 +11.0 73 +16 +16 1010.8 977.0 +15.9 +15.6
С 2.9
{6.3}
+15.9 +10.9 72 +15 +15 1010.7 976.9 +16.0 +15.9
С 3.3
{6.1}
+15.9 +10.9 72 +15 +15 1010.6 976.8 +16.0 +15.9
СВ 2.2
{4.9}
+15.5 +10.9 74 +15 +15 1010.5 976.7 +16.0 +15.5
СВ 1.9
{4.1}
+15.0 +10.9 77 +15 +15 1010.5 976.7 +15.5 +15.0
СВ 2.0
{4.3}
+15.0 +11.0 77 +15 +15 1010.4 976.6 +15.1 +15.0
СВ 2.5
{4.5}
+15.0 +11.0 77 +14 +14 1010.3 976.5 +15.1 +15.0
СВ 2.0
{3.8}
+14.8 +11.0 78 +15 +15 1010.2 976.4 +15.0 +14.8
СВ 2.4
{4.5}
+14.8 +10.9 78 +14 +14 1010.1 976.3 +14.9 +14.8
СВ 2.4
{4.9}
+14.5 +10.7 78 +14 +14 1010.2 976.4 +14.7 +14.5
СВ 2.3
{4.2}
+14.5 +10.8 78 +14 +14 1010.2 976.4 +14.7 +14.5
СВ 2.2
{4.7}
+14.6 +10.8 78 +14 +14 1010.3 976.5 +14.6 +14.5
СВ 2.0
{4.1}
+14.1 +10.8 80 +14 +14 1010.3 976.5 +14.6 +14.1
С 2.6
{5.4}
+14.2 +11.0 81 +13 +13 1010.2 976.4 +14.2 +14.0
С 2.8
{4.8}
+13.8 +11.3 85 +13 +13 1010.2 976.4 +14.2 +13.6
С 2.6
{5.1}
+14.6 +11.4 81 +14 +14 1010.2 976.4 +14.6 +13.8
С 2.5
{5.5}
+15.1 +11.4 79 +15 +15 1010.1 976.3 +15.1 +14.6
С 2.9
{6.6}
+15.6 +11.6 77 +15 +15 1010.1 976.3 +15.6 +15.1
СВ 2.6
{5.5}
+16.0 +11.7 76 +16 +16 1010.1 976.3 +16.0 +15.6
СВ 2.3
{4.8}
+15.9 +11.7 76 +16 +16 1010.0 976.2 +16.1 +15.9
СВ 2.3
{5.2}
+16.5 +12.1 75 +17 +17 1010.0 976.2 +16.5 +16.0
СВ 2.6
{5.6}
+17.0 +12.5 75 +17 +17 1010.0 976.2 +17.0 +16.5
СВ 4.0
{7.4}
+18.2 +13.0 72 +18 +18 1010.0 976.2 +18.2 +17.0
СВ 5.5
{12.0}
+19.2 +13.1 68 +20 +20 1010.0 976.2 +19.2 +18.2
СВ 6.3
{11.9}
+19.4 +13.0 66 +20 +20 1010.0 976.2 +19.4 +19.1
В 6.5
{10.9}
+23.8 +12.2 48 +26 +26 жарко 1009.8 976.0 +24.1 +23.6
СВ 5.4
{10.8}
+24.7 +12.7 47 +27 +27 жарко 1009.6 975.8 +25.1 +24.5
Ю 3.0
{6.8}
+29.3 +9.5 29 +29 +29 жарко 1008.0 974.3 +29.4 +28.6
Ю 2.8
{6.6}
+29.7 +8.8 27 +29 +29 жарко 1008.0 974.3 +29.7 +29.1
Ю 2.4
{5.6}
+30.0 +9.0 27 +29 +29 жарко 1007.9 974.2 +30.0 +29.3
ЮЗ 3.6
{7.5}
+29.3 +6.7 24 +28 +28 жарко 1007.9 974.2 +30.2 +29.3
ЮЗ 2.5
{5.9}
+29.9 +6.9 24 +29 +29 жарко 1007.9 974.2 +30.3 +29.3
ЮЗ 2.5
{5.3}
+30.4 +8.1 25 +30 +30 жарко 1007.9 974.2 +30.4 +29.6
ЮЗ 2.6
{5.4}
+30.5 +8.6 26 +30 +30 жарко 1007.8 974.1 +30.4 +29.8
ЮЗ 2.7
{6.1}
+30.4 +8.9 26 +30 +30 жарко 1007.8 974.1 +30.6 +30.0
Ю 2.4
{6.8}
+30.9 +7.6 23 +30 +30 жарко 1007.7 974.0 +31.0 +30.2
Ю 2.9
{7.8}
+30.8 +8.5 25 +30 +30 жарко 1007.6 973.9 +30.8 +29.7
Ю 2.3
{4.8}
+30.2 +7.9 25 +29 +29 жарко 1007.5 973.8 +30.8 +30.1
ЮВ 2.5
{6.1}
+30.1 +7.2 24 +29 +29 жарко 1007.5 973.8 +30.6 +30.1
Ю 2.5
{7.3}
+30.6 +8.1 25 +30 +30 жарко 1007.4 973.7 +31.6 +30.1
ЮВ 3.0
{6.2}
+30.6 +7.6 24 +30 +30 жарко 1007.4 973.7 +30.9 +30.2
Ю 2.4
{6.3}
+30.4 +8.0 25 +30 +30 жарко 1007.3 973.6 +31.1 +30.4
Ю 2.6
{6.0}
+30.4 +8.4 25 +30 +30 жарко 1007.3 973.6 +31.0 +30.3
ЮВ 2.6
{6.1}
+30.3 +8.3 25 +29 +29 жарко 1007.4 973.7 +30.5 +29.7
ЮВ 2.9
{6.5}
+30.8 +9.0 26 +30 +30 жарко 1007.3 973.6 +30.8 +30.2
Ю 2.4
{5.8}
+30.6 +8.5 25 +30 +30 жарко 1007.4 973.7 +30.9 +30.3
ЮВ 2.8
{5.8}
+30.6 +8.3 25 +30 +30 жарко 1007.5 973.8 +30.9 +30.3
Ю 2.2
{5.5}
+30.7 +8.2 25 +30 +30 жарко 1007.5 973.8 +30.9 +30.3
Ю 3.0
{6.7}
+30.1 +8.1 25 +29 +29 жарко 1007.6 973.9 +30.4 +29.9
ЮВ 2.8
{5.8}
+30.3 +8.4 25 +29 +29 жарко 1007.6 973.9 +30.4 +30.0
ЮВ 2.5
{6.2}
+29.9 +8.7 27 +29 +29 жарко 1007.6 973.9 +30.6 +29.8
ЮВ 2.6
{5.5}
+30.0 +8.9 27 +29 +29 жарко 1007.7 974.0 +30.1 +29.8
ЮВ 3.4
{6.4}
+29.6 +8.3 26 +29 +29 жарко 1007.6 973.9 +30.1 +29.6
ЮВ 2.7
{5.8}
+29.2 +8.7 28 +29 +29 жарко 1007.6 973.9 +29.5 +29.2
Ю 2.0
{4.7}
+28.8 +8.6 28 +28 +28 жарко 1007.7 974.0 +29.0 +28.8
ЮВ 1.9
{4.8}
+28.7 +8.5 28 +28 +28 жарко 1007.7 974.0 +28.9 +28.6
ЮВ 1.7
{3.7}
+28.4 +8.7 29 +28 +28 жарко 1007.7 974.0 +28.7 +28.4
Местоположение метеостанции Мубарек (Кашкадарьинская область, Узбекистан): широта 39.28 долгота 65.15 высота над уровнем моря 0 м.
В архиве по умолчанию представлена погода в Мубареке за последние 1-2 суток. Обновление информации о фактической погоде в базе происходит ежечасно! Архивные данные за месяц целиком и за предыдущие месяцы Вы можете получить, выбрав интересующий диапазон дат из раскрывающегося списка и нажав кнопку "Ввод!".
*Определитесь, кто Вы:
Внимание! Время в таблицах - местное (без учета летнего времени). Для получения всемирного времени необходимо вычесть поправку, которая равна 5 ч.
Смотрите также архив погоды на ближайших метеорологических станциях:
Партнеры нашего сайта:      
Пояснения к столбцам:
  • Ветер - указаны скорость ветра в м/с - средняя за 10 мин, порывы в срок и между сроками (в фигурных скобках) и направление, откуда дует ветер: С - северный,
  • СВ - северо-восточный, В - восточный, ЮВ - юго-восточный, Ю - южный, ЮЗ - юго-западный, З - западный, СЗ - северо-западный.
  • Видимость - горизонтальная дальность видимости в метрах или километрах. При видимости от 1 до 10 км при отсутствии осадков обычно наблюдается дымка, при ухудшении видимости до 1 км и менее - туман. В сухую погоду видимость может ухудшаться дымом, пылью или мглою.
  • Явления - указаны атмосферные явления, наблюдавшиеся в срок или в последний час перед сроком.
  • Солнечная радиация - мощность потока солнечного излучения на поверхность земли и предметов в Вт/м2.
  • T - Температура воздуха - температура, измеренная на высоте 2 м над землей.
  • Td - Температура точки росы - температура, при понижении до которой содержащийся в воздухе водяной пар достигнет насыщения.
  • f - Относительная влажность воздуха - влажноcть воздуха, измеренная на высоте 2 м над землей.
  • Te - Эффективная температура - температура, которую ощущает одетый по сезону человек в тени. Характеристика душности погоды. При расчете учитывается влияние влажности воздуха и скорости ветра на теплоощущения человека.
  • Tes - Эффективная температура на солнце - температура, которую ощущает человек, с поправкой на солнечный нагрев. Характеристика знойности погоды. Зависит от высоты солнца над горизонтом, облачности и скорости ветра. Ночью, в пасмурную погоду, а также при ветре 12 м/с и более поправка равна нулю.
  • P - Атмосферное давление - приведенное к уровню моря атмосферное давление.
  • Po - Атмосферное давление - измеренное на уровне метеостанции атмосферное давление.
  • Tmin - Минимальная температура - минимум температуры воздуха на высоте 2 м над землей.
  • Tmax - Максимальная температура - максимум температуры воздуха на высоте 2 м над землей.
  • R - Количество осадков - Количество выпавших осадков за период времени, мм. При наведении курсора мыши на число - период времени, за который выпало указанное количество осадков.